Temp
-7 -6 -6 -6 -6 -6 -6 -6 -6 -6 -6 -7 -7 -6 -7 -7 -7 -7 -7 -8 -7 -8 -8 -8 -8 -8 -9 -9 -9 -9 -9 -9 -9 -9 -9 -9 -9 -9 -8 -8 -8 -8 -8
-7 -6 -6 -6 -6 -6 -6 -6 -6 -6 -6 -6 -7 -6 -7 -7 -7 -7 -7 -8 -8 -7 -8 -8 -8 -8 -8 -8 -9 -9 -9 -9 -9 -9 -9 -8 -9 -9 -8 -8 -8 -8 -8
-6 -7 -6 -6 -6 -6 -6 -6 -6 -6 -6 -6 -6 -6 -6 -6 -6 -6 -7 -7 -7 -8 -8 -8 -8 -8 -8 -8 -9 -9 -9 -9 -9 -9 -9 -8 -8 -9 -9 -8 -8 -8 -8
-6 -6 -6 -6 -6 -6 -6 -6 -6 -6 -6 -6 -6 -6 -6 -6 -6 -6 -6 -7 -7 -8 -8 -7 -7 -8 -8 -8 -8 -9 -9 -9 -10 -9 -9 -9 -9 -9 -9 -9 -8 -8 -8
-7 -7 -6 -6 -6 -7 -7 -7 -7 -6 -5 -6 -6 -6 -5 -6 -6 -6 -7 -7 -7 -7 -7 -8 -7 -8 -8 -8 -9 -8 -9 -9 -9 -10 -9 -9 -9 -9 -9 -9 -9 -9 -9
-7 -7 -6 -6 -6 -6 -6 -6 -6 -6 -6 -6 -6 -6 -5 -6 -6 -6 -6 -7 -7 -7 -7 -7 -7 -7 -8 -8 -8 -8 -9 -9 -9 -10 -10 -9 -9 -9 -9 -9 -9 -9 -9
-7 -7 -6 -6 -6 -6 -6 -6 -6 -6 -6 -5 -6 -6 -6 -6 -6 -6 -6 -6 -6 -6 -6 -6 -7 -7 -7 -7 -8 -8 -9 -9 -9 -9 -10 -10 -9 -9 -9 -9 -9 -9 -9
-7 -7 -7 -7 -6 -6 -6 -6 -6 -6 -6 -6 -6 -6 -6 -6 -6 -6 -6 -6 -6 -6 -6 -6 -6 -7 -7 -7 -8 -8 -9 -9 -9 -9 -9 -9 -9 -9 -9 -9 -9 -9 -9
-7 -7 -7 -6 -6 -6 -6 -6 -6 -6 -6 -6 -6 -6 -6 -6 -6 -6 -6 -6 -6 -6 -6 -6 -6 -7 -7 -7 -7 -8 -9 -9 -9 -8 -9 -9 -9 -9 -9 -8 -9 -8 -9
-7 -6 -6 -6 -6 -6 -6 -6 -6 -6 -6 -6 -6 -6 -6 -6 -6 -6 -6 -6 -6 -6 -6 -7 -7 -7 -7 -7 -7 -8 -8 -8 -8 -9 -8 -9 -9 -9 -8 -8 -8 -8 -8
-7 -7 -7 -6 -6 -6 -6 -6 -6 -6 -6 -6 -6 -6 -6 -6 -6 -6 -6 -6 -6 -6 -6 -6 -7 -7 -7 -7 -7 -7 -8 -8 -8 -8 -8 -9 -9 -9 -8 -8 -8 -8 -8
-6 -6 -6 -6 -6 -6 -6 -7 -6 -6 -6 -6 -6 -6 -6 -6 -6 -5 -5 -6 -6 -6 -6 -6 -6 -7 -6 -6 -7 -7 -7 -7 -8 -7 -8 -9 -9 -8 -8 -8 -8 -8 -8
-6 -6 -7 -7 -7 -7 -7 -7 -7 -6 -6 -6 -6 -6 -6 -6 -5 -6 -6 -6 -6 -6 -6 -6 -6 -6 -6 -6 -6 -6 -7 -7 -7 -7 -7 -8 -9 -8 -8 -8 -7 -8 -8
-7 -7 -7 -7 -7 -7 -7 -7 -7 -7 -6 -6 -6 -5 -6 -6 -6 -5 -6 -6 -6 -5 -6 -6 -6 -6 -6 -6 -6 -6 -7 -7 -7 -7 -7 -7 -8 -8 -8 -8 -7 -7 -7
-7 -7 -7 -7 -7 -7 -7 -7 -7 -7 -6 -6 -6 -6 -6 -6 -6 -5 -6 -6 -6 -6 -6 -6 -6 -5 -6 -6 -6 -6 -6 -7 -6 -7 -7 -7 -8 -8 -8 -8 -7 -7 -7
-7 -7 -8 -7 -8 -7 -8 -7 -7 -7 -7 -6 -5 -5 -6 -6 -6 -5 -6 -6 -6 -6 -6 -5 -6 -6 -6 -6 -6 -6 -6 -6 -6 -7 -7 -7 -7 -7 -7 -7 -7 -7 -7
-8 -7 -8 -8 -7 -8 -8 -7 -7 -7 -7 -7 -7 -7 -7 -7 -6 -6 -6 -6 -6 -5 -6 -6 -5 -5 -5 -5 -6 -6 -6 -6 -6 -6 -7 -7 -7 -7 -7 -7 -7 -7 -7
-8 -8 -8 -8 -8 -8 -8 -7 -7 -7 -7 -7 -7 -7 -7 -7 -6 -6 -6 -6 -6 -6 -6 -5 -5 -5 -6 -5 -5 -6 -6 -6 -6 -6 -6 -6 -7 -7 -7 -7 -7 -7 -7
-7 -7 -7 -7 -7 -7 -7 -7 -7 -7 -7 -7 -7 -7 -7 -6 -6 -6 -7 -6 -6 -6 -6 -6 -5 -5 -5 -6 -6 -6 -6 -6 -6 -6 -6 -6 -6 -6 -7 -7 -7 -7 -7
-7 -7 -7 -7 -7 -7 -7 -7 -7 -7 -7 -7 -7 -7 -7 -7 -7 -7 -7 -7 -7 -6 -6 -6 -6 -6 -5 -6 -6 -6 -6 -5 -5 -6 -6 -5 -6 -6 -6 -6 -6 -6 -7
-7 -7 -7 -7 -8 -8 -8 -8 -8 -8 -8 -7 -7 -7 -8 -8 -7 -7 -7 -7 -6 -6 -6 -6 -6 -6 -6 -5 -5 -6 -6 -6 -6 -6 -5 -6 -6 -6 -6 -6 -6 -6 -6
-7 -8 -8 -7 -7 -7 -7 -8 -8 -8 -8 -8 -8 -8 -8 -8 -8 -7 -7 -7 -7 -7 -6 -6 -6 -6 -6 -6 -5 -6 -6 -6 -6 -6 -6 -5 -6 -6 -6 -6 -6 -6 -6
-7 -7 -8 -8 -7 -7 -7 -7 -8 -8 -8 -8 -8 -8 -8 -9 -8 -7 -7 -7 -7 -7 -7 -7 -6 -6 -6 -6 -6 -5 -5 -5 -6 -6 -5 -5 -5 -6 -6 -6 -6 -6 -6
-8 -8 -7 -7 -7 -7 -7 -7 -7 -7 -8 -8 -8 -8 -8 -8 -9 -8 -7 -7 -7 -7 -7 -7 -7 -7 -6 -6 -5 -5 -6 -6 -6 -6 -5 -5 -6 -6 -6 -5 -5 -6 -6
-7 -7 -7 -7 -7 -7 -7 -7 -7 -7 -7 -7 -8 -8 -8 -8 -8 -8 -7 -7 -6 -6 -7 -7 -7 -7 -7 -6 -5 -6 -6 -6 -5 -6 -6 -6 -6 -6 -6 -6 -6 -6 -6
-7 -7 -7 -7 -7 -7 -7 -7 -7 -7 -7 -7 -7 -7 -7 -8 -7 -7 -7 -7 -7 -6 -6 -7 -6 -6 -7 -7 -7 -6 -5 -5 -5 -6 -5 -6 -6 -6 -6 -6 -5 -6 -6
Height
5935 5936 5937 5937 5938 5938 5937 5936 5936 5936 5936 5936 5935 5937 5937 5937 5938 5939 5940 5941 5941 5941 5941 5942 5943 5942 5943 5942 5945 5947 5949 5951 5953 5954 5956 5957 5957 5960 5961 5962 5963 5964 5965
5936 5936 5937 5937 5937 5938 5938 5937 5937 5937 5936 5935 5936 5934 5935 5937 5937 5938 5938 5939 5940 5940 5940 5941 5941 5942 5941 5942 5943 5946 5947 5949 5952 5954 5956 5957 5958 5960 5961 5963 5964 5965 5966
5936 5936 5937 5937 5937 5937 5937 5937 5937 5937 5934 5935 5933 5935 5935 5936 5937 5936 5937 5937 5938 5939 5939 5939 5940 5940 5941 5942 5943 5944 5946 5948 5950 5952 5955 5957 5958 5960 5962 5963 5965 5966 5967
5936 5936 5936 5938 5938 5937 5936 5936 5935 5935 5935 5936 5933 5934 5936 5936 5936 5935 5936 5936 5937 5938 5938 5938 5939 5939 5940 5940 5942 5944 5944 5946 5948 5951 5954 5956 5958 5960 5962 5963 5965 5966 5968
5935 5936 5936 5937 5937 5936 5936 5936 5936 5935 5935 5935 5935 5935 5933 5935 5935 5935 5934 5935 5935 5935 5937 5937 5938 5939 5939 5940 5941 5942 5942 5943 5946 5948 5953 5955 5957 5959 5961 5963 5965 5966 5968
5934 5934 5935 5935 5936 5935 5936 5935 5935 5935 5935 5936 5936 5932 5936 5935 5935 5935 5932 5933 5934 5934 5935 5936 5936 5937 5937 5938 5939 5939 5940 5941 5944 5946 5950 5954 5956 5958 5961 5962 5964 5966 5968
5932 5933 5933 5933 5933 5934 5934 5934 5934 5934 5934 5934 5935 5935 5935 5935 5935 5934 5933 5928 5932 5933 5933 5934 5935 5935 5935 5936 5937 5938 5938 5939 5942 5944 5948 5952 5955 5957 5960 5962 5964 5966 5968
5930 5931 5931 5931 5931 5932 5931 5932 5933 5933 5933 5932 5934 5934 5934 5935 5934 5932 5931 5931 5931 5929 5932 5932 5933 5934 5933 5934 5934 5935 5936 5937 5939 5941 5944 5948 5953 5955 5958 5961 5963 5965 5967
5929 5929 5929 5929 5930 5930 5930 5930 5931 5932 5931 5932 5933 5933 5933 5933 5933 5932 5932 5931 5928 5926 5929 5931 5931 5932 5932 5932 5932 5933 5934 5934 5937 5938 5941 5945 5950 5953 5957 5959 5962 5964 5965
5927 5928 5928 5928 5928 5928 5929 5929 5929 5930 5930 5930 5930 5932 5932 5932 5932 5932 5931 5930 5929 5928 5928 5928 5928 5929 5929 5930 5931 5931 5932 5933 5934 5936 5939 5943 5947 5951 5954 5957 5960 5962 5963
5926 5926 5926 5926 5926 5927 5928 5928 5928 5928 5928 5927 5927 5928 5928 5929 5930 5930 5929 5929 5928 5928 5926 5925 5926 5926 5928 5929 5929 5930 5930 5930 5932 5933 5937 5941 5946 5950 5952 5955 5958 5960 5962
5923 5925 5925 5925 5926 5926 5926 5927 5926 5925 5926 5925 5926 5926 5927 5927 5927 5926 5927 5927 5926 5925 5923 5923 5923 5925 5927 5928 5929 5929 5929 5928 5929 5931 5934 5939 5944 5948 5951 5953 5955 5958 5960
5921 5922 5923 5923 5924 5924 5924 5925 5924 5924 5923 5922 5923 5923 5924 5924 5924 5920 5923 5924 5924 5924 5923 5923 5923 5924 5926 5927 5928 5928 5928 5928 5929 5931 5933 5937 5941 5945 5949 5951 5953 5955 5958
5917 5918 5919 5920 5922 5921 5921 5922 5922 5921 5920 5918 5917 5919 5922 5922 5921 5921 5921 5921 5921 5921 5922 5922 5922 5922 5922 5926 5927 5928 5928 5929 5929 5930 5933 5935 5938 5942 5946 5949 5951 5952 5954
5915 5915 5916 5916 5918 5919 5918 5918 5917 5917 5915 5911 5914 5915 5915 5917 5917 5916 5917 5916 5917 5917 5919 5919 5920 5920 5921 5923 5924 5926 5927 5928 5929 5930 5931 5933 5936 5939 5942 5945 5948 5949 5951
5913 5913 5913 5913 5915 5916 5914 5914 5913 5913 5909 5904 5904 5907 5910 5911 5912 5912 5913 5913 5912 5912 5913 5914 5916 5917 5918 5919 5920 5923 5924 5925 5928 5929 5930 5931 5933 5936 5938 5940 5942 5945 5947
5911 5911 5910 5910 5912 5912 5911 5911 5911 5909 5908 5906 5903 5904 5905 5907 5908 5908 5908 5909 5908 5908 5909 5909 5911 5912 5914 5915 5916 5918 5920 5921 5924 5925 5927 5927 5929 5931 5933 5936 5938 5940 5942
5910 5909 5909 5909 5910 5910 5910 5910 5909 5908 5905 5905 5904 5904 5905 5904 5904 5904 5904 5904 5905 5905 5905 5905 5907 5908 5909 5910 5911 5914 5915 5916 5917 5920 5922 5924 5924 5926 5927 5929 5932 5934 5937
5910 5909 5908 5908 5909 5908 5908 5908 5907 5906 5906 5904 5903 5903 5903 5901 5900 5900 5900 5899 5900 5901 5901 5901 5901 5902 5904 5905 5906 5908 5909 5910 5910 5914 5916 5918 5920 5922 5923 5924 5926 5928 5930
5909 5908 5908 5908 5908 5907 5906 5906 5905 5904 5903 5902 5902 5901 5901 5899 5898 5897 5897 5896 5896 5895 5895 5896 5897 5896 5898 5900 5901 5902 5903 5905 5905 5906 5908 5910 5913 5915 5916 5918 5919 5922 5924
5908 5908 5908 5908 5907 5905 5905 5903 5902 5901 5899 5897 5898 5897 5896 5896 5895 5894 5893 5894 5893 5892 5891 5890 5891 5891 5891 5893 5894 5895 5896 5897 5898 5898 5900 5902 5904 5906 5909 5910 5912 5915 5916
5906 5906 5906 5906 5906 5904 5903 5901 5900 5898 5896 5894 5894 5894 5892 5891 5890 5890 5890 5890 5889 5889 5888 5887 5887 5887 5886 5886 5886 5888 5888 5888 5890 5888 5889 5891 5894 5896 5898 5901 5904 5905 5906
5904 5904 5904 5904 5903 5902 5900 5898 5896 5895 5893 5892 5891 5889 5888 5886 5884 5884 5884 5883 5883 5883 5882 5882 5882 5881 5881 5881 5880 5880 5880 5880 5880 5880 5879 5879 5883 5884 5888 5891 5893 5894 5896
5900 5900 5900 5900 5898 5896 5895 5894 5892 5890 5889 5888 5886 5884 5882 5880 5877 5875 5876 5877 5877 5877 5876 5876 5876 5876 5876 5874 5874 5873 5872 5871 5872 5872 5872 5874 5875 5878 5878 5881 5881 5883 5885
5897 5896 5895 5895 5893 5892 5891 5889 5888 5886 5884 5883 5882 5880 5878 5875 5873 5870 5869 5870 5871 5871 5870 5870 5869 5868 5869 5869 5868 5866 5865 5864 5864 5864 5864 5866 5867 5868 5868 5870 5870 5873 5874
5891 5891 5890 5889 5888 5888 5886 5885 5884 5882 5880 5879 5877 5875 5873 5871 5869 5867 5865 5865 5864 5864 5863 5862 5861 5860 5860 5860 5861 5860 5858 5857 5856 5856 5853 5853 5856 5857 5858 5861 5860 5862 5863
Wind_Speed
12 9 8 7 6 5 6 5 5 4 6 5 6 8 10 7 4 7 8 4 3 3 4 4 6 8 10 10 18 17 15 13 11 10 11 10 13 13 11 8 6 4 5
11 9 7 6 6 5 6 3 2 3 2 8 8 7 9 6 3 3 10 8 7 3 4 5 4 6 6 1 9 16 17 16 13 11 10 9 13 15 13 10 6 4 4
11 10 9 8 5 3 1 1 1 4 6 6 10 3 6 5 3 2 8 10 8 6 5 5 5 4 4 7 9 11 14 16 16 13 12 11 14 15 14 12 8 5 4
8 9 9 9 8 6 4 3 5 5 2 5 7 2 8 5 4 1 5 5 7 8 7 5 5 6 4 5 9 13 15 15 20 17 14 14 15 15 14 13 12 8 4
9 8 8 8 8 7 6 5 5 7 4 5 5 4 4 6 11 4 6 6 5 5 6 6 6 8 10 7 7 10 13 16 18 21 18 15 15 14 14 15 14 11 8
10 10 10 10 9 9 7 8 6 5 1 1 2 4 7 4 6 7 9 7 7 5 8 6 7 7 8 13 14 10 12 16 16 19 20 17 15 14 13 13 14 14 10
10 10 11 11 10 9 9 8 7 6 8 10 5 3 4 3 5 10 13 13 8 5 5 3 6 8 9 10 13 14 14 15 19 20 22 20 18 15 16 14 12 12 11
9 9 9 9 10 9 9 7 8 7 9 10 6 4 5 6 7 9 10 10 11 10 2 2 4 6 7 9 12 12 14 16 18 21 26 24 18 17 16 15 13 12 12
10 9 8 9 10 10 8 7 8 8 8 9 11 11 7 8 7 8 8 10 14 10 10 4 4 6 5 7 8 8 12 14 18 22 25 25 23 19 17 16 14 13 14
11 9 9 8 9 11 10 6 8 9 10 9 10 12 12 13 12 9 9 7 14 5 6 6 6 5 5 6 9 8 8 13 15 20 25 26 25 20 18 16 14 11 12
10 11 11 11 10 10 11 11 11 10 11 9 11 14 14 13 12 12 11 12 12 11 10 10 9 6 5 6 8 8 8 12 13 17 23 26 24 20 19 18 15 13 11
12 11 11 11 12 13 14 13 13 14 13 11 10 12 13 14 13 13 12 15 13 15 15 11 12 4 4 6 7 8 8 10 13 17 22 24 23 21 20 19 16 15 14
13 12 11 13 13 13 15 16 17 15 14 13 12 12 13 16 17 17 13 14 14 15 14 18 11 4 5 6 7 8 9 12 14 15 18 23 21 21 20 18 17 15 15
8 9 10 12 13 15 15 16 18 20 21 23 20 21 16 17 15 17 16 14 16 18 13 15 15 15 12 6 9 10 9 13 15 16 17 19 21 21 20 18 17 17 18
5 8 11 12 13 13 10 12 18 23 28 33 33 21 22 21 16 12 15 14 17 19 21 19 12 18 17 14 12 13 13 13 16 18 18 20 21 21 20 19 19 19 19
6 7 9 12 13 11 7 7 7 11 15 20 26 26 20 17 14 12 12 12 13 17 18 16 13 14 16 18 15 14 16 16 15 18 19 20 22 23 22 21 21 20 20
2 6 7 6 4 6 2 5 6 8 8 8 11 15 12 9 12 13 13 13 11 9 11 15 15 16 13 15 18 16 16 18 20 19 20 22 23 23 22 22 23 22 21
2 4 3 2 2 2 5 6 6 9 8 6 3 2 5 8 11 12 13 15 13 11 13 16 13 15 14 14 16 21 17 22 23 24 24 25 25 26 26 25 24 23 22
4 4 4 4 3 3 3 5 7 9 9 8 8 8 9 9 10 10 11 12 15 17 17 18 20 19 16 16 17 20 23 24 23 25 28 29 28 28 27 26 26 25 24
1 2 2 1 2 3 5 8 10 13 14 12 10 11 12 13 13 12 12 12 15 17 17 18 21 25 24 22 22 21 23 25 27 29 29 30 32 32 32 31 30 28 28
2 3 2 1 2 4 6 8 11 11 15 12 13 12 12 14 16 17 17 17 18 18 18 19 20 21 24 24 23 25 26 27 28 28 30 33 34 33 34 35 34 32 32
3 2 4 6 8 9 10 14 13 12 9 7 8 13 17 18 19 19 19 20 20 20 20 21 21 21 20 22 25 24 24 27 24 34 33 43 40 37 35 33 35 38 38
5 5 6 8 9 11 12 14 12 12 11 10 10 12 15 19 24 25 23 21 20 21 22 23 22 23 22 21 23 23 25 24 29 27 32 33 42 39 34 38 39 40 40
7 8 9 10 11 12 13 12 12 11 11 11 11 12 14 15 16 21 26 25 23 23 24 25 26 25 25 23 24 25 29 26 26 22 29 30 34 32 33 36 37 42 44
15 13 13 13 14 14 13 14 13 13 14 14 14 15 17 17 18 15 18 25 27 27 27 28 27 28 29 27 25 26 28 22 23 26 30 36 37 38 35 36 31 37 43
19 18 17 16 16 16 15 14 14 15 17 16 15 16 18 19 15 16 13 17 25 29 31 31 32 32 31 30 29 29 27 27 25 28 25 32 37 40 39 41 35 33 37
Wind_Direction
149 137 128 124 122 113 112 129 145 131 167 149 169 165 163 136 114 209 218 204 169 176 185 208 237 240 257 289 202 206 205 210 202 199 194 196 192 188 179 172 162 122 101
161 148 141 145 137 107 86 107 125 152 195 169 142 173 175 146 146 248 209 205 209 197 194 195 222 236 257 252 191 212 217 230 208 200 207 202 190 191 183 180 182 146 113
168 163 149 163 173 163 129 116 265 261 224 202 229 254 272 88 121 115 190 203 208 203 195 197 216 212 221 217 228 235 229 229 219 214 204 201 187 191 192 190 186 167 129
183 180 168 172 188 201 206 264 277 313 248 343 323 234 17 236 169 192 171 207 223 220 210 210 221 211 210 212 221 231 236 233 224 224 209 205 199 200 206 203 202 207 200
202 208 206 198 196 207 217 251 308 334 42 32 68 91 248 292 224 244 230 194 206 227 213 218 224 237 228 231 244 236 240 234 231 228 212 207 207 207 209 215 208 211 219
210 212 221 216 215 223 228 238 273 296 271 127 335 355 221 310 253 270 267 205 189 204 231 231 226 242 250 252 246 264 245 235 228 214 209 209 213 214 213 210 210 212 208
224 226 229 230 223 219 235 244 252 249 226 257 245 309 325 312 317 288 265 267 255 235 175 206 223 239 250 253 250 244 237 226 220 221 214 215 215 216 216 211 211 216 212
222 219 220 214 203 211 225 234 234 237 241 272 236 248 288 311 310 317 268 297 307 284 184 146 225 242 250 250 252 248 237 228 219 220 216 213 216 213 217 215 218 220 219
222 224 230 217 217 224 232 246 237 239 240 251 246 247 270 292 295 328 280 314 320 313 231 237 220 224 238 250 261 255 239 221 227 224 217 217 219 208 218 217 216 224 229
225 233 231 238 235 231 241 249 242 248 247 258 256 265 268 270 270 294 307 328 327 293 270 227 231 223 217 243 258 266 250 228 220 223 217 216 208 205 211 218 217 221 222
219 229 233 240 248 258 258 262 258 256 258 268 257 247 256 268 271 268 282 296 315 287 259 227 234 215 223 229 252 257 233 218 217 216 212 210 213 213 209 214 217 220 214
231 235 245 251 252 258 266 267 269 266 258 266 261 250 257 266 271 263 278 281 289 307 285 251 256 222 239 232 236 249 229 220 209 207 203 209 216 214 211 214 212 217 222
252 251 253 253 254 262 263 262 265 265 257 256 258 253 252 266 271 287 276 274 277 278 310 293 291 288 269 263 238 232 220 214 203 201 203 208 216 213 215 221 221 222 229
255 252 258 259 260 258 264 265 266 266 262 251 233 258 254 257 254 265 274 256 265 260 292 282 276 276 250 258 250 231 219 213 205 204 210 211 211 216 219 225 227 227 231
248 242 245 250 263 270 274 297 270 278 270 265 257 272 260 250 247 252 268 258 254 264 275 277 276 263 275 254 241 229 222 219 217 209 207 210 210 216 223 230 233 233 233
247 241 239 242 258 273 244 279 258 295 336 274 256 252 243 227 234 242 254 263 263 267 260 251 270 260 266 267 252 225 230 224 225 223 216 216 218 221 226 230 234 237 239
211 243 250 248 227 266 304 237 270 303 325 2 213 205 204 243 248 247 251 258 261 252 233 251 262 261 275 257 248 247 230 233 228 229 226 222 222 224 228 231 234 235 236
104 112 136 141 202 257 293 297 304 307 316 314 281 229 252 250 250 251 253 255 259 251 249 256 260 264 260 270 240 245 253 238 231 231 232 233 229 228 228 230 234 237 237
116 106 106 104 82 39 9 353 344 329 312 293 282 272 257 249 246 249 249 253 256 255 253 257 264 262 263 266 260 262 249 267 249 240 237 236 237 236 233 232 232 233 235
235 198 135 22 356 339 331 330 332 320 302 299 293 281 274 272 272 267 264 257 257 256 258 261 263 264 263 259 259 261 253 252 254 251 238 241 241 240 239 236 234 233 234
203 178 186 78 324 331 303 306 312 324 340 278 275 282 285 279 275 274 272 269 269 270 269 269 268 265 265 266 259 258 260 260 257 269 257 249 242 242 242 242 241 240 241
209 247 270 282 279 291 279 282 301 304 318 352 305 291 282 277 269 268 269 273 276 278 278 274 273 270 263 263 266 269 270 260 273 266 267 253 244 239 240 242 243 244 242
245 258 263 278 287 301 299 285 292 284 297 302 317 300 298 290 274 264 262 266 272 276 279 280 278 276 274 272 268 269 263 258 269 276 260 244 241 245 249 246 245 245 244
264 269 273 280 287 297 298 292 287 289 288 296 313 313 320 319 316 274 263 263 266 270 274 279 281 281 277 272 273 270 267 274 270 265 254 248 240 235 247 257 255 250 251
265 265 270 275 283 288 288 290 288 289 298 303 306 312 318 326 320 324 277 263 266 270 274 275 276 281 281 277 270 274 276 280 270 261 261 253 244 243 245 248 253 248 252
260 264 269 277 280 283 289 292 287 290 292 297 304 309 312 315 311 308 301 283 273 271 271 269 271 271 275 279 277 270 268 270 266 263 275 250 247 245 247 253 257 252 254